When you browse on this site, cookies collect data to enhance your experience and personalize the content and advertising you see.
Visit our Privacy Policy to learn more. By continuing to use the site, you agree to this use of cookies and data.
  • In Switzerland
  • List of Countries
  • For 7 days
  • Water Temperature
  • Satellite Maps
  • Weather Map
  • Weather Widgets
  • user-avatar
    Login

    Hourly Weather Heinsberg

    Today, 24 May, Friday

    Time Temperature Precipitation Wind Pressure Humidity
    00:00 +14°C° 0 mm 1 mps 758 mmHg 67%
    01:00 +13°C° 0 mm 1 mps 758 mmHg 70%
    02:00 +13°C° 0 mm 2 mps 758 mmHg 73%
    03:00 +13°C° 0 mm 2 mps 758 mmHg 75%
    04:00 +14°C° 0 mm 2 mps 758 mmHg 75%
    05:00 +15°C° 0 mm 2 mps 758 mmHg 74%
    06:00 +16°C° 0 mm 2 mps 758 mmHg 73%
    07:00 +18°C° 0 mm 2 mps 758 mmHg 69%
    08:00 +19°C° 0 mm 2 mps 758 mmHg 65%
    09:00 +21°C° 0 mm 2 mps 758 mmHg 60%
    10:00 +21°C° 0.7 mm 2 mps 757 mmHg 61%
    11:00 +22°C° 0.7 mm 3 mps 757 mmHg 62%
    12:00 +22°C° 0.7 mm 3 mps 757 mmHg 63%
    13:00 +22°C° 0.6 mm 3 mps 757 mmHg 61%
    14:00 +22°C° 0.6 mm 3 mps 757 mmHg 60%
    15:00 +22°C° 0.6 mm 3 mps 757 mmHg 59%
    16:00 +21°C° 0.2 mm 3 mps 757 mmHg 62%
    17:00 +20°C° 0.2 mm 3 mps 757 mmHg 64%
    18:00 +19°C° 0.2 mm 4 mps 757 mmHg 67%
    19:00 +17°C° 0 mm 3 mps 757 mmHg 68%
    20:00 +14°C° 0 mm 3 mps 758 mmHg 68%
    21:00 +13°C° 0 mm 2 mps 758 mmHg 69%
    22:00 +12°C° 0 mm 2 mps 758 mmHg 73%
    23:00 +11°C° 0 mm 1 mps 758 mmHg 77%

    Tomorrow, 25 May, Saturday

    Time Temperature Precipitation Wind Pressure Humidity
    00:00 +10°C° 0 mm 1 mps 759 mmHg 82%
    01:00 +10°C° 0 mm 1 mps 759 mmHg 84%
    02:00 +9°C° 0 mm 1 mps 759 mmHg 87%
    03:00 +8°C° 0 mm 2 mps 759 mmHg 90%
    04:00 +9°C° 0 mm 2 mps 759 mmHg 87%
    05:00 +11°C° 0 mm 1 mps 759 mmHg 84%
    06:00 +12°C° 0 mm 1 mps 759 mmHg 81%
    07:00 +13°C° 0 mm 2 mps 759 mmHg 76%
    08:00 +15°C° 0 mm 2 mps 759 mmHg 70%
    09:00 +17°C° 0 mm 2 mps 759 mmHg 64%
    10:00 +17°C° 0 mm 2 mps 758 mmHg 65%
    11:00 +17°C° 0 mm 3 mps 758 mmHg 67%
    12:00 +17°C° 0 mm 3 mps 758 mmHg 68%
    13:00 +17°C° 0.7 mm 3 mps 758 mmHg 69%
    14:00 +18°C° 0.7 mm 3 mps 758 mmHg 71%
    15:00 +18°C° 0.7 mm 3 mps 757 mmHg 72%
    16:00 +18°C° 0.6 mm 3 mps 757 mmHg 75%
    17:00 +17°C° 0.6 mm 3 mps 758 mmHg 78%
    18:00 +17°C° 0.6 mm 3 mps 758 mmHg 80%
    19:00 +14°C° 0.1 mm 3 mps 758 mmHg 83%
    20:00 +12°C° 0.1 mm 3 mps 758 mmHg 85%
    21:00 +11°C° 0.1 mm 3 mps 759 mmHg 88%
    22:00 +10°C° 0 mm 3 mps 758 mmHg 89%
    23:00 +9°C° 0 mm 3 mps 758 mmHg 91%

    Day after tomorrow, 26 May, Sunday

    Time Temperature Precipitation Wind Pressure Humidity
    00:00 +9°C° 0 mm 3 mps 758 mmHg 92%
    01:00 +9°C° 0 mm 3 mps 758 mmHg 92%
    02:00 +8°C° 0 mm 3 mps 758 mmHg 91%
    03:00 +8°C° 0 mm 3 mps 757 mmHg 90%
    04:00 +9°C° 0 mm 3 mps 757 mmHg 90%
    05:00 +10°C° 0 mm 4 mps 757 mmHg 91%
    06:00 +11°C° 0 mm 4 mps 757 mmHg 91%
    07:00 +12°C° 0.1 mm 5 mps 756 mmHg 90%
    08:00 +13°C° 0.1 mm 5 mps 756 mmHg 90%
    09:00 +15°C° 0.1 mm 5 mps 756 mmHg 90%
    10:00 +15°C° 0.1 mm 5 mps 756 mmHg 88%
    11:00 +16°C° 0.1 mm 5 mps 756 mmHg 86%
    12:00 +17°C° 0.1 mm 6 mps 756 mmHg 84%
    13:00 +17°C° 0.2 mm 6 mps 755 mmHg 83%
    14:00 +17°C° 0.2 mm 6 mps 755 mmHg 83%
    15:00 +17°C° 0.2 mm 6 mps 755 mmHg 82%
    16:00 +17°C° 0.1 mm 6 mps 754 mmHg 82%
    17:00 +16°C° 0.1 mm 6 mps 754 mmHg 82%
    18:00 +16°C° 0.1 mm 6 mps 754 mmHg 82%
    19:00 +15°C° 0 mm 6 mps 753 mmHg 83%
    20:00 +15°C° 0 mm 6 mps 753 mmHg 83%
    21:00 +14°C° 0 mm 6 mps 753 mmHg 83%
    22:00 +14°C° 0.4 mm 6 mps 753 mmHg 86%
    23:00 +14°C° 0.4 mm 6 mps 753 mmHg 89%

    27 May, Monday

    Time Temperature Precipitation Wind Pressure Humidity
    00:00 +14°C° 0.4 mm 6 mps 753 mmHg 92%
    01:00 +14°C° 0.8 mm 6 mps 752 mmHg 93%
    02:00 +14°C° 0.8 mm 6 mps 752 mmHg 93%
    03:00 +14°C° 0.8 mm 5 mps 751 mmHg 94%
    04:00 +14°C° 0.1 mm 5 mps 752 mmHg 92%
    05:00 +13°C° 0.1 mm 5 mps 752 mmHg 91%
    06:00 +13°C° 0.1 mm 5 mps 752 mmHg 89%
    07:00 +14°C° 0.2 mm 5 mps 752 mmHg 85%
    08:00 +14°C° 0.2 mm 5 mps 753 mmHg 81%
    09:00 +15°C° 0.2 mm 6 mps 753 mmHg 76%
    10:00 +15°C° 0.1 mm 6 mps 753 mmHg 70%
    11:00 +16°C° 0.1 mm 6 mps 753 mmHg 64%
    12:00 +17°C° 0.1 mm 6 mps 753 mmHg 58%
    13:00 +16°C° 0.1 mm 6 mps 753 mmHg 59%
    14:00 +16°C° 0.1 mm 6 mps 753 mmHg 60%
    15:00 +16°C° 0.1 mm 5 mps 753 mmHg 62%
    16:00 +15°C° 0.1 mm 4 mps 753 mmHg 65%
    17:00 +14°C° 0.1 mm 4 mps 753 mmHg 69%
    18:00 +14°C° 0.1 mm 3 mps 752 mmHg 73%
    19:00 +13°C° 0 mm 3 mps 752 mmHg 76%
    20:00 +12°C° 0 mm 3 mps 753 mmHg 79%
    21:00 +11°C° 0 mm 3 mps 753 mmHg 82%
    22:00 +11°C° 0 mm 3 mps 752 mmHg 84%
    23:00 +11°C° 0 mm 3 mps 752 mmHg 85%

    28 May, Tuesday

    Time Temperature Precipitation Wind Pressure Humidity
    00:00 +10°C° 0 mm 3 mps 752 mmHg 87%
    01:00 +10°C° 0 mm 3 mps 752 mmHg 87%
    02:00 +10°C° 0 mm 3 mps 752 mmHg 88%
    03:00 +10°C° 0 mm 3 mps 751 mmHg 88%
    04:00 +10°C° 0.1 mm 3 mps 752 mmHg 88%
    05:00 +10°C° 0.1 mm 3 mps 752 mmHg 88%
    06:00 +11°C° 0.1 mm 3 mps 752 mmHg 87%
    07:00 +12°C° 0.3 mm 3 mps 752 mmHg 84%
    08:00 +14°C° 0.3 mm 2 mps 752 mmHg 81%
    09:00 +14°C° 0.3 mm 2 mps 752 mmHg 78%
    10:00 +14°C° 0.6 mm 3 mps 753 mmHg 78%
    11:00 +14°C° 0.6 mm 4 mps 753 mmHg 78%
    12:00 +14°C° 0.6 mm 4 mps 753 mmHg 78%
    13:00 +14°C° 0.2 mm 5 mps 753 mmHg 75%
    14:00 +14°C° 0.2 mm 5 mps 754 mmHg 72%
    15:00 +14°C° 0.2 mm 6 mps 754 mmHg 69%
    16:00 +14°C° 0 mm 5 mps 755 mmHg 69%
    17:00 +13°C° 0 mm 5 mps 755 mmHg 69%
    18:00 +12°C° 0 mm 5 mps 756 mmHg 69%
    19:00 +11°C° 0 mm 4 mps 756 mmHg 69%
    20:00 +10°C° 0 mm 4 mps 757 mmHg 69%
    21:00 +8°C° 0 mm 4 mps 758 mmHg 69%
    22:00 +8°C° 0 mm 3 mps 758 mmHg 72%
    23:00 +7°C° 0 mm 3 mps 759 mmHg 76%

    29 May, Wednesday

    Time Temperature Precipitation Wind Pressure Humidity
    00:00 +5°C° 0 mm 3 mps 759 mmHg 79%
    01:00 +6°C° 0 mm 2 mps 759 mmHg 81%
    02:00 +5°C° 0 mm 2 mps 759 mmHg 84%
    03:00 +6°C° 0 mm 1 mps 759 mmHg 86%
    04:00 +7°C° 0 mm 1 mps 759 mmHg 82%
    05:00 +8°C° 0 mm 1 mps 759 mmHg 78%
    06:00 +9°C° 0 mm 1 mps 760 mmHg 75%
    07:00 +9°C° 0 mm 2 mps 759 mmHg 69%
    08:00 +12°C° 0 mm 2 mps 759 mmHg 63%
    09:00 +13°C° 0 mm 2 mps 759 mmHg 58%
    10:00 +14°C° 0 mm 2 mps 759 mmHg 57%
    11:00 +13°C° 0 mm 3 mps 759 mmHg 55%
    12:00 +14°C° 0 mm 3 mps 758 mmHg 54%
    13:00 +14°C° 0 mm 3 mps 758 mmHg 54%
    14:00 +14°C° 0 mm 4 mps 758 mmHg 54%
    15:00 +15°C° 0 mm 4 mps 758 mmHg 54%
    16:00 +14°C° 0.1 mm 3 mps 758 mmHg 61%
    17:00 +13°C° 0.1 mm 3 mps 758 mmHg 67%
    18:00 +13°C° 0.1 mm 3 mps 757 mmHg 74%
    19:00 +12°C° 0 mm 3 mps 758 mmHg 76%
    20:00 +11°C° 0 mm 3 mps 758 mmHg 78%
    21:00 +10°C° 0 mm 3 mps 758 mmHg 81%
    22:00 +10°C° 0 mm 3 mps 758 mmHg 82%
    23:00 +8°C° 0 mm 4 mps 758 mmHg 83%
    Show more